2025-292E

Last updated on Mon Dec 15 2025 00:02:13 GMT+0000 (Coordinated Universal Time)

1 66997U 25292E 25348.60212454 .00000858 00000+0 65331-4 0 9995 2 66997 97.6547 61.1375 0013580 270.3465 89.6205 15.04688384 663
UTC large
Height (km)
Speed (km/s)
/
Latitude / Longitude
Inclination (degrees)
Orbital Period (minutes)
Azimuth
Elevation
Range (km)
Doppler Factor

Next 0 passes for location: London (51.5072 / 0.1276)

Sorry there are no passes over London.